Weather Roundup
Issued by NWS

Home | Current Version | Previous Version | Text Only | Print | Product List | Glossary On
Versions: 1 2 3 4 5 6 7 8 9 10 11 12 13 14 15 16 17 18 19 20 21 22 23 24 25 26 27 28 29 30 31 32 33 34 35 36 37 38 39 40 41 42 43 44 45 46 47 48 49 50
000
NZUS93 KARX 201610
HRRWXR

CURRENT HOURLY OBSERVATIONS ACROSS
MUCH OF THE UPPER MISSISSIPPI VALLEY
NATIONAL WEATHER SERVICE LA CROSSE WI
1100 AM CDT SUN AUG 20 2017


...SOUTHEAST MINNESOTA...


CITY           SKY/WX    TMP DP  RH WIND       PRES   REMARKS
ROCHESTER      CLOUDY    73  68  84 S8        30.00S
ROCHESTER/MAYO FAIR      73  65  75 SW6       29.99R
WINONA         CLOUDY    73  64  73 CALM      29.98S
AUSTIN         CLOUDY    73  66  78 S7        29.99S
ALBERT LEA     SUNNY     79  66  65 SW7       29.98S
DODGE CENTER   CLOUDY    73  64  73 S13G18    29.99R
PRESTON        CLOUDY    70  64  81 S8        30.01F
OWATONNA       SUNNY     77  68  73 S9        29.97R
FARIBAULT      SUNNY     79  68  69 S6        29.96R
$$

...ELSEWHERE IN MINNESOTA...


CITY           SKY/WX    TMP DP  RH WIND       PRES   REMARKS
MINNEAPOLIS    MOSUNNY   78  65  63 SW9       29.91S
INTNL FALLS    MOSUNNY   73  61  65 W10       29.86R
DULUTH         CLOUDY    68  65  90 W13       29.89R
RED WING       CLOUDY    79  64  61 S6        29.93R
REDWOOD FALLS  CLOUDY    74  66  76 W6        29.95R
MANKATO        SUNNY     76  67  73 SW10      29.96R
WORTHINGTON    SUNNY     76  65  68 W5        29.99
FAIRMONT       SUNNY     76  65  68 SW9       29.98R
$$

...SOUTHWEST WISCONSIN...


CITY           SKY/WX    TMP DP  RH WIND       PRES   REMARKS
LA CROSSE      CLOUDY    75  65  70 S8        30.00R
PRAIRIE DU CHI CLOUDY    71  64  77 CALM      30.02R
BOSCOBEL       CLOUDY    74  64  71 SW7       30.02R
LONE ROCK      CLOUDY    75  66  73 SW6       30.02R
PLATTEVILLE    CLOUDY    71  69  92 W6        30.05S
FORT MC COY    CLOUDY    72  64  76 S6        30.01R
CAMP DOUGLAS   CLOUDY    73  64  73 S5        30.01R
MAUSTON-NEW LI CLOUDY    74  66  75 S8        30.01R
VIROQUA        FAIR      71  67  87 CALM      30.03R
WIS DELLS      CLOUDY    75  62  65 SW9       30.03S
$$

...ELSEWHERE IN WISCONSIN...


CITY           SKY/WX    TMP DP  RH WIND       PRES   REMARKS
MILWAUKEE      CLOUDY    80  64  58 SW12      30.05R
MADISON        CLOUDY    75  65  70 S7        30.03S
GREEN BAY      CLOUDY    75  65  70 S10       30.02R
EAU CLAIRE     CLOUDY    74  64  71 S12       29.94S
BLACK RVR FLS  PTSUNNY   73  68  82 S5        29.99R
MEDFORD        CLOUDY    71  64  77 S12G17    29.98F
WAUSAU         CLOUDY    72  62  71 S10       29.99S
WIS RAPIDS     CLOUDY    75  65  70 SW9       30.02S
MARSHFIELD     CLOUDY    74  63  68 S9        30.00S
RICE LAKE      SUNNY     74  65  74 S9        29.95R
$$

...NORTHEAST IOWA...


CITY           SKY/WX    TMP DP  RH WIND       PRES   REMARKS
WATERLOO       CLOUDY    74  62  66 S6        29.99F
DUBUQUE        CLOUDY    71  65  81 SW6       30.04F
DECORAH        CLOUDY    72  66  83 SW6       30.02R
MASON CITY     CLOUDY    78  65  63 S10       30.02R
CHARLES CITY   CLOUDY    72  68  88 S6        30.02S
OELWEIN        CLOUDY    70  68  94 S7        30.03R
$$

...ELSEWHERE IN IOWA...


CITY           SKY/WX    TMP DP  RH WIND       PRES   REMARKS
DES MOINES     PTSUNNY   78  66  66 VRB3      29.95S
IOWA CITY      CLOUDY    72  67  84 N5        29.99F
FORT DODGE     SUNNY     79  64  61 SE10      29.99S
MARSHALLTOWN   MOSUNNY   74  66  76 SE13      29.98R
CEDAR RAPIDS   LGT RAIN  70  67  90 NW8       29.98F
$$

...NORTHERN ILLINOIS...


CITY           SKY/WX    TMP DP  RH WIND       PRES   REMARKS
CHICAGO-OHARE  PTSUNNY   82  64  54 S6        30.05S
CHICAGO-MIDWAY PTSUNNY   82  65  56 S3        30.05S
MOLINE         CLOUDY    78  65  63 NW5       30.01F
ROCKFORD       CLOUDY    78  68  71 S8        30.06R
PEORIA         CLOUDY    80  67  64 W5        30.04F
$$

NOTE: "FAIR" INDICATES FEW OR NO CLOUDS BELOW 12,000 FEET WITH NO
SIGNIFICANT WEATHER AND/OR OBSTRUCTIONS TO VISIBILITY. WIND
SPEEDS ARE IN MILES-PER-HOUR.




USA.gov is the U.S. government's official web portal to all federal, state and local government web resources and services.